contact:dominique.lefevre@mio.osupytheas.fr, maurice.libes@osupytheas.fr, didier.mallarino@osupytheas.fr
Project:EMSO http://www.emso-fr.org/EMSO-France
Depth: 2436.0 m
Title:EMSO Ligure Ouest : Data MII capteur MICROCAT
DateTime_Computer,Latitude,Longitude,Temperature,Conductivity,Pressure,DateTime_Instrument
DateTime_Computer,Latitude,Longitude,degC,S m-1,dbar,DateTime_Instrument
2023-05-06T00:02:00Z,42.805,6.029,13.3018,4.60074,2470.646,2023-5-06T02:05:09Z
2023-05-06T00:05:03Z,42.805,6.029,13.3017,4.60073,2470.646,2023-5-06T02:08:12Z
2023-05-06T00:08:07Z,42.805,6.029,13.3020,4.60072,2470.614,2023-5-06T02:11:15Z
2023-05-06T00:11:10Z,42.805,6.029,13.3018,4.60073,2470.637,2023-5-06T02:14:18Z
2023-05-06T00:14:13Z,42.805,6.029,13.3018,4.60072,2470.646,2023-5-06T02:17:21Z
2023-05-06T00:17:16Z,42.805,6.029,13.3020,4.60072,2470.624,2023-5-06T02:20:24Z
2023-05-06T00:20:19Z,42.805,6.029,13.3018,4.60075,2470.661,2023-5-06T02:23:27Z
2023-05-06T00:23:22Z,42.805,6.029,13.3020,4.60073,2470.614,2023-5-06T02:26:30Z
2023-05-06T00:26:25Z,42.805,6.029,13.3017,4.60072,2470.624,2023-5-06T02:29:33Z
2023-05-06T00:29:28Z,42.805,6.029,13.3019,4.60074,2470.624,2023-5-06T02:32:36Z
2023-05-06T00:32:31Z,42.805,6.029,13.3019,4.60074,2470.624,2023-5-06T02:35:39Z
2023-05-06T00:35:34Z,42.805,6.029,13.3020,4.60072,2470.614,2023-5-06T02:38:42Z
2023-05-06T00:38:37Z,42.805,6.029,13.3024,4.60074,2470.637,2023-5-06T02:41:46Z
2023-05-06T00:41:40Z,42.805,6.029,13.3017,4.60073,2470.637,2023-5-06T02:44:49Z
2023-05-06T00:44:43Z,42.805,6.029,13.3021,4.60073,2470.6,2023-5-06T02:47:52Z
2023-05-06T00:47:47Z,42.805,6.029,13.3017,4.60073,2470.6,2023-5-06T02:50:55Z
2023-05-06T00:50:50Z,42.805,6.029,13.3015,4.60075,2470.614,2023-5-06T02:53:58Z
2023-05-06T00:53:53Z,42.805,6.029,13.3020,4.60073,2470.624,2023-5-06T02:57:01Z
2023-05-06T00:56:56Z,42.805,6.029,13.3020,4.60073,2470.586,2023-5-06T03:00:04Z
2023-05-06T00:59:59Z,42.805,6.029,13.3019,4.60073,2470.6,2023-5-06T03:03:07Z
2023-05-06T01:03:02Z,42.805,6.029,13.3019,4.60074,2470.624,2023-5-06T03:06:10Z
2023-05-06T01:06:05Z,42.805,6.029,13.3018,4.60072,2470.577,2023-5-06T03:09:13Z
2023-05-06T01:09:08Z,42.805,6.029,13.3018,4.60073,2470.6,2023-5-06T03:12:16Z
2023-05-06T01:12:11Z,42.805,6.029,13.3019,4.60073,2470.624,2023-5-06T03:15:19Z
2023-05-06T01:15:14Z,42.805,6.029,13.3017,4.60074,2470.6,2023-5-06T03:18:22Z
2023-05-06T01:18:17Z,42.805,6.029,13.3017,4.60074,2470.6,2023-5-06T03:21:26Z
2023-05-06T01:21:20Z,42.805,6.029,13.3019,4.60074,2470.6,2023-5-06T03:24:29Z
2023-05-06T01:24:23Z,42.805,6.029,13.3014,4.60073,2470.6,2023-5-06T03:27:32Z
2023-05-06T01:27:26Z,42.805,6.029,13.3017,4.60072,2470.591,2023-5-06T03:30:35Z
2023-05-06T01:30:30Z,42.805,6.029,13.3015,4.60074,2470.614,2023-5-06T03:33:38Z
2023-05-06T01:33:33Z,42.805,6.029,13.3018,4.60072,2470.591,2023-5-06T03:36:41Z
2023-05-06T01:36:36Z,42.805,6.029,13.3021,4.60072,2470.6,2023-5-06T03:39:44Z
2023-05-06T01:39:39Z,42.805,6.029,13.3015,4.60074,2470.624,2023-5-06T03:42:47Z
2023-05-06T01:42:42Z,42.805,6.029,13.3019,4.60072,2470.586,2023-5-06T03:45:50Z
2023-05-06T01:45:45Z,42.805,6.029,13.3015,4.60072,2470.577,2023-5-06T03:48:53Z
2023-05-06T01:48:48Z,42.805,6.029,13.3015,4.60072,2470.6,2023-5-06T03:51:56Z
2023-05-06T01:51:51Z,42.805,6.029,13.3016,4.60072,2470.553,2023-5-06T03:54:59Z
2023-05-06T01:54:54Z,42.805,6.029,13.3020,4.60072,2470.577,2023-5-06T03:58:02Z
2023-05-06T01:57:57Z,42.805,6.029,13.3018,4.60073,2470.553,2023-5-06T04:01:06Z
2023-05-06T02:01:00Z,42.805,6.029,13.3019,4.60072,2470.586,2023-5-06T04:04:09Z
2023-05-06T02:04:03Z,42.805,6.029,13.3015,4.60072,2470.577,2023-5-06T04:07:12Z
2023-05-06T02:07:06Z,42.805,6.029,13.3016,4.60072,2470.6,2023-5-06T04:10:15Z
2023-05-06T02:10:09Z,42.805,6.029,13.3019,4.60074,2470.614,2023-5-06T04:13:18Z
2023-05-06T02:13:13Z,42.805,6.029,13.3016,4.60074,2470.591,2023-5-06T04:16:21Z
2023-05-06T02:16:16Z,42.805,6.029,13.3019,4.60073,2470.567,2023-5-06T04:19:24Z
2023-05-06T02:19:19Z,42.805,6.029,13.3018,4.60072,2470.6,2023-5-06T04:22:27Z
2023-05-06T02:22:22Z,42.805,6.029,13.3017,4.60073,2470.553,2023-5-06T04:25:30Z
2023-05-06T02:25:25Z,42.805,6.029,13.3017,4.60072,2470.624,2023-5-06T04:28:33Z
2023-05-06T02:28:28Z,42.805,6.029,13.3016,4.60075,2470.577,2023-5-06T04:31:36Z
2023-05-06T02:31:31Z,42.805,6.029,13.3021,4.60072,2470.577,2023-5-06T04:34:39Z
2023-05-06T02:34:34Z,42.805,6.029,13.3019,4.60074,2470.6,2023-5-06T04:37:42Z
2023-05-06T02:37:37Z,42.805,6.029,13.3018,4.60073,2470.6,2023-5-06T04:40:45Z
2023-05-06T02:40:40Z,42.805,6.029,13.3019,4.60074,2470.577,2023-5-06T04:43:49Z
2023-05-06T02:43:43Z,42.805,6.029,13.3016,4.60074,2470.6,2023-5-06T04:46:52Z
2023-05-06T02:46:46Z,42.805,6.029,13.3018,4.60073,2470.577,2023-5-06T04:49:55Z
2023-05-06T02:49:50Z,42.805,6.029,13.3015,4.60073,2470.591,2023-5-06T04:52:58Z
2023-05-06T02:52:53Z,42.805,6.029,13.3020,4.60076,2470.6,2023-5-06T04:56:01Z
2023-05-06T02:55:56Z,42.805,6.029,13.3017,4.60074,2470.614,2023-5-06T04:59:04Z
2023-05-06T02:58:59Z,42.805,6.029,13.3018,4.60081,2470.6,2023-5-06T05:02:07Z
2023-05-06T03:02:02Z,42.805,6.029,13.3019,4.60075,2470.614,2023-5-06T05:05:10Z
2023-05-06T03:05:05Z,42.805,6.029,13.3021,4.60074,2470.624,2023-5-06T05:08:13Z
2023-05-06T03:08:08Z,42.805,6.029,13.3018,4.60073,2470.624,2023-5-06T05:11:16Z
2023-05-06T03:11:11Z,42.805,6.029,13.3016,4.60073,2470.624,2023-5-06T05:14:19Z
2023-05-06T03:14:14Z,42.805,6.029,13.3019,4.60075,2470.577,2023-5-06T05:17:22Z
2023-05-06T03:17:17Z,42.805,6.029,13.3019,4.60076,2470.6,2023-5-06T05:20:25Z
2023-05-06T03:20:20Z,42.805,6.029,13.3016,4.60074,2470.624,2023-5-06T05:23:29Z
2023-05-06T03:23:23Z,42.805,6.029,13.3019,4.60074,2470.624,2023-5-06T05:26:32Z
2023-05-06T03:26:26Z,42.805,6.029,13.3015,4.60075,2470.614,2023-5-06T05:29:35Z
2023-05-06T03:29:29Z,42.805,6.029,13.3016,4.60075,2470.6,2023-5-06T05:32:38Z
2023-05-06T03:32:33Z,42.805,6.029,13.3021,4.60076,2470.646,2023-5-06T05:35:41Z
2023-05-06T03:35:36Z,42.805,6.029,13.3015,4.60080,2470.661,2023-5-06T05:38:44Z
2023-05-06T03:38:39Z,42.805,6.029,13.3017,4.60074,2470.646,2023-5-06T05:41:47Z
2023-05-06T03:41:42Z,42.805,6.029,13.3018,4.60072,2470.637,2023-5-06T05:44:50Z
2023-05-06T03:44:45Z,42.805,6.029,13.3016,4.60073,2470.624,2023-5-06T05:47:53Z
2023-05-06T03:47:48Z,42.805,6.029,13.3018,4.60075,2470.661,2023-5-06T05:50:56Z
2023-05-06T03:50:51Z,42.805,6.029,13.3021,4.60077,2470.67,2023-5-06T05:53:59Z
2023-05-06T03:53:54Z,42.805,6.029,13.3021,4.60076,2470.624,2023-5-06T05:57:02Z
2023-05-06T03:56:57Z,42.805,6.029,13.3019,4.60074,2470.624,2023-5-06T06:00:05Z
2023-05-06T04:00:00Z,42.805,6.029,13.3015,4.60074,2470.661,2023-5-06T06:03:09Z
2023-05-06T04:03:03Z,42.805,6.029,13.3013,4.60074,2470.646,2023-5-06T06:06:12Z
2023-05-06T04:06:06Z,42.805,6.029,13.3017,4.60076,2470.67,2023-5-06T06:09:15Z
2023-05-06T04:09:09Z,42.805,6.029,13.3015,4.60075,2470.646,2023-5-06T06:12:18Z
2023-05-06T04:12:12Z,42.805,6.029,13.3020,4.60076,2470.646,2023-5-06T06:15:21Z
2023-05-06T04:15:16Z,42.805,6.029,13.3019,4.60074,2470.646,2023-5-06T06:18:24Z
2023-05-06T04:18:19Z,42.805,6.029,13.3015,4.60074,2470.67,2023-5-06T06:21:27Z
2023-05-06T04:21:22Z,42.805,6.029,13.3018,4.60076,2470.684,2023-5-06T06:24:30Z
2023-05-06T04:24:25Z,42.805,6.029,13.3020,4.60075,2470.707,2023-5-06T06:27:33Z
2023-05-06T04:27:28Z,42.805,6.029,13.3017,4.60074,2470.646,2023-5-06T06:30:36Z
2023-05-06T04:30:31Z,42.805,6.029,13.3016,4.60074,2470.67,2023-5-06T06:33:39Z
2023-05-06T04:33:34Z,42.805,6.029,13.3015,4.60077,2470.684,2023-5-06T06:36:42Z
2023-05-06T04:36:37Z,42.805,6.029,13.3022,4.60075,2470.73,2023-5-06T06:39:45Z
2023-05-06T04:39:40Z,42.805,6.029,13.3021,4.60077,2470.717,2023-5-06T06:42:48Z
2023-05-06T04:42:43Z,42.805,6.029,13.3017,4.60081,2470.707,2023-5-06T06:45:52Z
2023-05-06T04:45:46Z,42.805,6.029,13.3018,4.60076,2470.73,2023-5-06T06:48:55Z
2023-05-06T04:48:49Z,42.805,6.029,13.3018,4.60075,2470.703,2023-5-06T06:51:58Z
2023-05-06T04:51:52Z,42.805,6.029,13.3021,4.60076,2470.693,2023-5-06T06:55:01Z
2023-05-06T04:54:56Z,42.805,6.029,13.3020,4.60076,2470.73,2023-5-06T06:58:04Z
2023-05-06T04:57:59Z,42.805,6.029,13.3015,4.60077,2470.67,2023-5-06T07:01:07Z
2023-05-06T05:01:02Z,42.805,6.029,13.3018,4.60081,2470.717,2023-5-06T07:04:10Z
2023-05-06T05:04:05Z,42.805,6.029,13.3015,4.60077,2470.717,2023-5-06T07:07:13Z
2023-05-06T05:07:08Z,42.805,6.029,13.3019,4.60075,2470.73,2023-5-06T07:10:16Z
2023-05-06T05:10:11Z,42.805,6.029,13.3019,4.60074,2470.754,2023-5-06T07:13:19Z
2023-05-06T05:13:14Z,42.805,6.029,13.3019,4.60075,2470.74,2023-5-06T07:16:22Z
2023-05-06T05:16:17Z,42.805,6.029,13.3021,4.60076,2470.74,2023-5-06T07:19:25Z
2023-05-06T05:19:20Z,42.805,6.029,13.3019,4.60077,2470.693,2023-5-06T07:22:28Z
2023-05-06T05:22:23Z,42.805,6.029,13.3015,4.60077,2470.717,2023-5-06T07:25:32Z
2023-05-06T05:25:26Z,42.805,6.029,13.3017,4.60074,2470.73,2023-5-06T07:28:35Z
2023-05-06T05:28:29Z,42.805,6.029,13.3017,4.60077,2470.73,2023-5-06T07:31:38Z
2023-05-06T05:31:32Z,42.805,6.029,13.3017,4.60077,2470.754,2023-5-06T07:34:41Z
2023-05-06T05:34:35Z,42.805,6.029,13.3014,4.60077,2470.74,2023-5-06T07:37:44Z
2023-05-06T05:37:39Z,42.805,6.029,13.3018,4.60078,2470.74,2023-5-06T07:40:47Z
2023-05-06T05:40:42Z,42.805,6.029,13.3019,4.60077,2470.754,2023-5-06T07:43:50Z
2023-05-06T05:43:45Z,42.805,6.029,13.3015,4.60077,2470.8,2023-5-06T07:46:53Z
2023-05-06T05:46:48Z,42.805,6.029,13.3018,4.60075,2470.74,2023-5-06T07:49:56Z
2023-05-06T05:49:51Z,42.805,6.029,13.3015,4.60075,2470.777,2023-5-06T07:52:59Z
2023-05-06T05:52:54Z,42.805,6.029,13.3015,4.60077,2470.763,2023-5-06T07:56:02Z
2023-05-06T05:55:57Z,42.805,6.029,13.3018,4.60076,2470.8,2023-5-06T07:59:05Z
2023-05-06T05:59:00Z,42.805,6.029,13.3014,4.60076,2470.754,2023-5-06T08:02:08Z
2023-05-06T06:02:03Z,42.805,6.029,13.3015,4.60079,2470.763,2023-5-06T08:05:11Z
2023-05-06T06:05:06Z,42.805,6.029,13.3018,4.60078,2470.777,2023-5-06T08:08:15Z
2023-05-06T06:08:09Z,42.805,6.029,13.3018,4.60078,2470.8,2023-5-06T08:11:18Z
2023-05-06T06:11:12Z,42.805,6.029,13.3017,4.60076,2470.763,2023-5-06T08:14:21Z
2023-05-06T06:14:15Z,42.805,6.029,13.3021,4.60074,2470.787,2023-5-06T08:17:24Z
2023-05-06T06:17:18Z,42.805,6.029,13.3018,4.60077,2470.763,2023-5-06T08:20:27Z
2023-05-06T06:20:22Z,42.805,6.029,13.3019,4.60077,2470.763,2023-5-06T08:23:30Z
2023-05-06T06:23:25Z,42.805,6.029,13.3021,4.60075,2470.763,2023-5-06T08:26:33Z
2023-05-06T06:26:28Z,42.805,6.029,13.3016,4.60076,2470.763,2023-5-06T08:29:36Z
2023-05-06T06:29:31Z,42.805,6.029,13.3018,4.60074,2470.787,2023-5-06T08:32:39Z
2023-05-06T06:32:34Z,42.805,6.029,13.3020,4.60077,2470.763,2023-5-06T08:35:42Z
2023-05-06T06:35:37Z,42.805,6.029,13.3020,4.60075,2470.74,2023-5-06T08:38:45Z
2023-05-06T06:38:40Z,42.805,6.029,13.3019,4.60076,2470.787,2023-5-06T08:41:48Z
2023-05-06T06:41:43Z,42.805,6.029,13.3018,4.60079,2470.777,2023-5-06T08:44:51Z
2023-05-06T06:44:46Z,42.805,6.029,13.3018,4.60083,2470.787,2023-5-06T08:47:55Z
2023-05-06T06:47:49Z,42.805,6.029,13.3015,4.60075,2470.763,2023-5-06T08:50:58Z
2023-05-06T06:50:52Z,42.805,6.029,13.3018,4.60075,2470.8,2023-5-06T08:54:01Z
2023-05-06T06:53:55Z,42.805,6.029,13.3015,4.60080,2470.8,2023-5-06T08:57:04Z
2023-05-06T06:56:58Z,42.805,6.029,13.3019,4.60077,2470.8,2023-5-06T09:00:07Z
2023-05-06T07:00:02Z,42.805,6.029,13.3019,4.60079,2470.81,2023-5-06T09:03:10Z
2023-05-06T07:03:05Z,42.805,6.029,13.3018,4.60075,2470.81,2023-5-06T09:06:13Z
2023-05-06T07:06:08Z,42.805,6.029,13.3019,4.60075,2470.763,2023-5-06T09:09:16Z
2023-05-06T07:09:11Z,42.805,6.029,13.3018,4.60077,2470.8,2023-5-06T09:12:19Z
2023-05-06T07:12:14Z,42.805,6.029,13.3018,4.60076,2470.787,2023-5-06T09:15:22Z
2023-05-06T07:15:17Z,42.805,6.029,13.3015,4.60074,2470.763,2023-5-06T09:18:25Z
2023-05-06T07:18:20Z,42.805,6.029,13.3016,4.60074,2470.763,2023-5-06T09:21:28Z
2023-05-06T07:21:23Z,42.805,6.029,13.3019,4.60076,2470.8,2023-5-06T09:24:31Z
2023-05-06T07:24:26Z,42.805,6.029,13.3018,4.60076,2470.787,2023-5-06T09:27:35Z
2023-05-06T07:27:29Z,42.805,6.029,13.3017,4.60074,2470.763,2023-5-06T09:30:38Z
2023-05-06T07:30:32Z,42.805,6.029,13.3015,4.60080,2470.787,2023-5-06T09:33:41Z
2023-05-06T07:33:35Z,42.805,6.029,13.3017,4.60074,2470.74,2023-5-06T09:36:44Z
2023-05-06T07:36:38Z,42.805,6.029,13.3015,4.60073,2470.777,2023-5-06T09:39:47Z
2023-05-06T07:39:42Z,42.805,6.029,13.3015,4.60074,2470.763,2023-5-06T09:42:50Z
2023-05-06T07:42:45Z,42.805,6.029,13.3015,4.60077,2470.763,2023-5-06T09:45:53Z
2023-05-06T07:45:48Z,42.805,6.029,13.3020,4.60076,2470.787,2023-5-06T09:48:56Z
2023-05-06T07:48:51Z,42.805,6.029,13.3019,4.60074,2470.763,2023-5-06T09:51:59Z
2023-05-06T07:51:54Z,42.805,6.029,13.3018,4.60074,2470.763,2023-5-06T09:55:02Z
2023-05-06T07:54:57Z,42.805,6.029,13.3017,4.60074,2470.763,2023-5-06T09:58:05Z
2023-05-06T07:58:00Z,42.805,6.029,13.3015,4.60072,2470.763,2023-5-06T10:01:08Z
2023-05-06T08:01:03Z,42.805,6.029,13.3014,4.60072,2470.763,2023-5-06T10:04:11Z
2023-05-06T08:04:06Z,42.805,6.029,13.3015,4.60073,2470.74,2023-5-06T10:07:15Z
2023-05-06T08:07:09Z,42.805,6.029,13.3015,4.60072,2470.74,2023-5-06T10:10:18Z
2023-05-06T08:10:12Z,42.805,6.029,13.3016,4.60073,2470.74,2023-5-06T10:13:21Z
2023-05-06T08:13:15Z,42.805,6.029,13.3016,4.60074,2470.763,2023-5-06T10:16:24Z
2023-05-06T08:16:18Z,42.805,6.029,13.3014,4.60076,2470.74,2023-5-06T10:19:27Z
2023-05-06T08:19:22Z,42.805,6.029,13.3012,4.60072,2470.777,2023-5-06T10:22:30Z
2023-05-06T08:22:25Z,42.805,6.029,13.3013,4.60074,2470.763,2023-5-06T10:25:33Z
2023-05-06T08:25:28Z,42.805,6.029,13.3015,4.60073,2470.763,2023-5-06T10:28:36Z
2023-05-06T08:28:31Z,42.805,6.029,13.3015,4.60074,2470.777,2023-5-06T10:31:39Z
2023-05-06T08:31:34Z,42.805,6.029,13.3015,4.60077,2470.754,2023-5-06T10:34:42Z
2023-05-06T08:34:37Z,42.805,6.029,13.3019,4.60074,2470.754,2023-5-06T10:37:45Z
2023-05-06T08:37:40Z,42.805,6.029,13.3014,4.60074,2470.754,2023-5-06T10:40:48Z
2023-05-06T08:40:43Z,42.805,6.029,13.3019,4.60074,2470.754,2023-5-06T10:43:51Z
2023-05-06T08:43:46Z,42.805,6.029,13.3018,4.60073,2470.777,2023-5-06T10:46:55Z
2023-05-06T08:46:49Z,42.805,6.029,13.3015,4.60074,2470.777,2023-5-06T10:49:58Z
2023-05-06T08:49:52Z,42.805,6.029,13.3015,4.60074,2470.726,2023-5-06T10:53:01Z
2023-05-06T08:52:55Z,42.805,6.029,13.3015,4.60073,2470.73,2023-5-06T10:56:04Z
2023-05-06T08:55:58Z,42.805,6.029,13.3016,4.60074,2470.74,2023-5-06T10:59:07Z
2023-05-06T08:59:02Z,42.805,6.029,13.3015,4.60077,2470.777,2023-5-06T11:02:10Z
2023-05-06T09:02:05Z,42.805,6.029,13.3015,4.60074,2470.73,2023-5-06T11:05:13Z
2023-05-06T09:05:08Z,42.805,6.029,13.3014,4.60074,2470.74,2023-5-06T11:08:16Z
2023-05-06T09:08:11Z,42.805,6.029,13.3015,4.60074,2470.754,2023-5-06T11:11:19Z
2023-05-06T09:11:14Z,42.805,6.029,13.3015,4.60073,2470.726,2023-5-06T11:14:22Z
2023-05-06T09:14:17Z,42.805,6.029,13.3017,4.60074,2470.754,2023-5-06T11:17:25Z
2023-05-06T09:17:20Z,42.805,6.029,13.3015,4.60073,2470.763,2023-5-06T11:20:28Z
2023-05-06T09:20:23Z,42.805,6.029,13.3016,4.60072,2470.73,2023-5-06T11:23:32Z
2023-05-06T09:23:26Z,42.805,6.029,13.3017,4.60072,2470.73,2023-5-06T11:26:35Z
2023-05-06T09:26:29Z,42.805,6.029,13.3015,4.60072,2470.74,2023-5-06T11:29:38Z
2023-05-06T09:29:32Z,42.805,6.029,13.3015,4.60074,2470.717,2023-5-06T11:32:41Z
2023-05-06T09:32:35Z,42.805,6.029,13.3014,4.60073,2470.754,2023-5-06T11:35:44Z
2023-05-06T09:35:39Z,42.805,6.029,13.3018,4.60073,2470.74,2023-5-06T11:38:47Z
2023-05-06T09:38:42Z,42.805,6.029,13.3012,4.60074,2470.717,2023-5-06T11:41:50Z
2023-05-06T09:41:45Z,42.805,6.029,13.3015,4.60072,2470.754,2023-5-06T11:44:53Z
2023-05-06T09:44:48Z,42.805,6.029,13.3017,4.60076,2470.74,2023-5-06T11:47:56Z
2023-05-06T09:47:51Z,42.805,6.029,13.3016,4.60074,2470.707,2023-5-06T11:50:59Z
2023-05-06T09:50:54Z,42.805,6.029,13.3015,4.60073,2470.693,2023-5-06T11:54:02Z
2023-05-06T09:53:57Z,42.805,6.029,13.3015,4.60073,2470.707,2023-5-06T11:57:05Z
2023-05-06T09:57:00Z,42.805,6.029,13.3015,4.60074,2470.717,2023-5-06T12:00:09Z
2023-05-06T10:00:03Z,42.805,6.029,13.3015,4.60072,2470.67,2023-5-06T12:03:12Z
2023-05-06T10:03:06Z,42.805,6.029,13.3016,4.60074,2470.67,2023-5-06T12:06:15Z
2023-05-06T10:06:09Z,42.805,6.029,13.3014,4.60072,2470.707,2023-5-06T12:09:18Z
2023-05-06T10:09:12Z,42.805,6.029,13.3018,4.60072,2470.717,2023-5-06T12:12:21Z
2023-05-06T10:12:15Z,42.805,6.029,13.3014,4.60073,2470.67,2023-5-06T12:15:24Z
2023-05-06T10:15:19Z,42.805,6.029,13.3015,4.60070,2470.661,2023-5-06T12:18:27Z
2023-05-06T10:18:22Z,42.805,6.029,13.3016,4.60072,2470.693,2023-5-06T12:21:30Z
2023-05-06T10:21:25Z,42.805,6.029,13.3019,4.60074,2470.67,2023-5-06T12:24:33Z
2023-05-06T10:24:28Z,42.805,6.029,13.3014,4.60073,2470.693,2023-5-06T12:27:36Z
2023-05-06T10:27:31Z,42.805,6.029,13.3017,4.60072,2470.684,2023-5-06T12:30:39Z
2023-05-06T10:30:34Z,42.805,6.029,13.3015,4.60070,2470.684,2023-5-06T12:33:42Z
2023-05-06T10:33:37Z,42.805,6.029,13.3014,4.60070,2470.67,2023-5-06T12:36:45Z
2023-05-06T10:36:40Z,42.805,6.029,13.3015,4.60070,2470.707,2023-5-06T12:39:49Z
2023-05-06T10:39:43Z,42.805,6.029,13.3012,4.60072,2470.67,2023-5-06T12:42:52Z
2023-05-06T10:42:46Z,42.805,6.029,13.3015,4.60069,2470.67,2023-5-06T12:45:55Z
2023-05-06T10:45:49Z,42.805,6.029,13.3015,4.60073,2470.67,2023-5-06T12:48:58Z
2023-05-06T10:48:52Z,42.805,6.029,13.3018,4.60073,2470.67,2023-5-06T12:52:01Z
2023-05-06T10:51:55Z,42.805,6.029,13.3017,4.60072,2470.684,2023-5-06T12:55:04Z
2023-05-06T10:54:59Z,42.805,6.029,13.3016,4.60070,2470.67,2023-5-06T12:58:07Z
2023-05-06T10:58:02Z,42.805,6.029,13.3011,4.60070,2470.67,2023-5-06T13:01:10Z
2023-05-06T11:01:05Z,42.805,6.029,13.3017,4.60069,2470.646,2023-5-06T13:04:13Z
2023-05-06T11:04:08Z,42.805,6.029,13.3015,4.60072,2470.646,2023-5-06T13:07:16Z
2023-05-06T11:07:11Z,42.805,6.029,13.3015,4.60070,2470.646,2023-5-06T13:10:19Z
2023-05-06T11:10:14Z,42.805,6.029,13.3015,4.60070,2470.637,2023-5-06T13:13:22Z
2023-05-06T11:13:17Z,42.805,6.029,13.3014,4.60072,2470.646,2023-5-06T13:16:26Z
2023-05-06T11:16:20Z,42.805,6.029,13.3011,4.60070,2470.646,2023-5-06T13:19:29Z
2023-05-06T11:19:23Z,42.805,6.029,13.3014,4.60069,2470.661,2023-5-06T13:22:32Z
2023-05-06T11:22:26Z,42.805,6.029,13.3010,4.60070,2470.693,2023-5-06T13:25:35Z
2023-05-06T11:25:29Z,42.805,6.029,13.3016,4.60072,2470.624,2023-5-06T13:28:38Z
2023-05-06T11:28:32Z,42.805,6.029,13.3015,4.60070,2470.661,2023-5-06T13:31:41Z
2023-05-06T11:31:36Z,42.805,6.029,13.3012,4.60072,2470.637,2023-5-06T13:34:44Z
2023-05-06T11:34:39Z,42.805,6.029,13.3017,4.60070,2470.646,2023-5-06T13:37:47Z
2023-05-06T11:37:42Z,42.805,6.029,13.3015,4.60069,2470.624,2023-5-06T13:40:50Z
2023-05-06T11:40:45Z,42.805,6.029,13.3013,4.60069,2470.624,2023-5-06T13:43:53Z
2023-05-06T11:43:48Z,42.805,6.029,13.3016,4.60072,2470.624,2023-5-06T13:46:56Z
2023-05-06T11:46:51Z,42.805,6.029,13.3017,4.60072,2470.637,2023-5-06T13:49:59Z
2023-05-06T11:49:54Z,42.805,6.029,13.3015,4.60069,2470.614,2023-5-06T13:53:03Z
2023-05-06T11:52:57Z,42.805,6.029,13.3014,4.60070,2470.6,2023-5-06T13:56:06Z
2023-05-06T11:56:00Z,42.805,6.029,13.3018,4.60070,2470.646,2023-5-06T13:59:09Z
2023-05-06T11:59:03Z,42.805,6.029,13.3014,4.60069,2470.624,2023-5-06T14:02:12Z
2023-05-06T12:02:06Z,42.805,6.029,13.3012,4.60072,2470.624,2023-5-06T14:05:15Z
2023-05-06T12:05:09Z,42.805,6.029,13.3016,4.60071,2470.624,2023-5-06T14:08:18Z
2023-05-06T12:08:12Z,42.805,6.029,13.3018,4.60070,2470.6,2023-5-06T14:11:21Z
2023-05-06T12:11:16Z,42.805,6.029,13.3015,4.60069,2470.624,2023-5-06T14:14:24Z
2023-05-06T12:14:19Z,42.805,6.029,13.3018,4.60070,2470.614,2023-5-06T14:17:27Z
2023-05-06T12:17:22Z,42.805,6.029,13.3015,4.60069,2470.637,2023-5-06T14:20:30Z
2023-05-06T12:20:25Z,42.805,6.029,13.3011,4.60070,2470.6,2023-5-06T14:23:33Z
2023-05-06T12:23:28Z,42.805,6.029,13.3015,4.60069,2470.577,2023-5-06T14:26:36Z
2023-05-06T12:26:31Z,42.805,6.029,13.3015,4.60069,2470.624,2023-5-06T14:29:39Z
2023-05-06T12:29:34Z,42.805,6.029,13.3016,4.60070,2470.6,2023-5-06T14:32:43Z
2023-05-06T12:32:37Z,42.805,6.029,13.3014,4.60070,2470.624,2023-5-06T14:35:46Z
2023-05-06T12:35:40Z,42.805,6.029,13.3017,4.60069,2470.6,2023-5-06T14:38:49Z
2023-05-06T12:38:43Z,42.805,6.029,13.3014,4.60069,2470.6,2023-5-06T14:41:52Z
2023-05-06T12:41:46Z,42.805,6.029,13.3017,4.60069,2470.6,2023-5-06T14:44:55Z
2023-05-06T12:44:49Z,42.805,6.029,13.3016,4.60072,2470.6,2023-5-06T14:47:58Z
2023-05-06T12:47:53Z,42.805,6.029,13.3013,4.60072,2470.637,2023-5-06T14:51:01Z
2023-05-06T12:50:56Z,42.805,6.029,13.3015,4.60070,2470.614,2023-5-06T14:54:04Z
2023-05-06T12:53:59Z,42.805,6.029,13.3012,4.60069,2470.577,2023-5-06T14:57:07Z
2023-05-06T12:57:02Z,42.805,6.029,13.3013,4.60070,2470.614,2023-5-06T15:00:10Z
2023-05-06T13:00:05Z,42.805,6.029,13.3019,4.60070,2470.6,2023-5-06T15:03:13Z
2023-05-06T13:03:08Z,42.805,6.029,13.3015,4.60069,2470.6,2023-5-06T15:06:16Z
2023-05-06T13:06:11Z,42.805,6.029,13.3015,4.60070,2470.591,2023-5-06T15:09:20Z
2023-05-06T13:09:14Z,42.805,6.029,13.3013,4.60070,2470.6,2023-5-06T15:12:23Z
2023-05-06T13:12:17Z,42.805,6.029,13.3017,4.60068,2470.577,2023-5-06T15:15:26Z
2023-05-06T13:15:20Z,42.805,6.029,13.3015,4.60069,2470.6,2023-5-06T15:18:29Z
2023-05-06T13:18:23Z,42.805,6.029,13.3015,4.60069,2470.577,2023-5-06T15:21:32Z
2023-05-06T13:21:26Z,42.805,6.029,13.3016,4.60072,2470.577,2023-5-06T15:24:35Z
2023-05-06T13:24:29Z,42.805,6.029,13.3017,4.60070,2470.577,2023-5-06T15:27:38Z
2023-05-06T13:27:33Z,42.805,6.029,13.3021,4.60072,2470.6,2023-5-06T15:30:41Z
2023-05-06T13:30:36Z,42.805,6.029,13.3013,4.60072,2470.577,2023-5-06T15:33:44Z
2023-05-06T13:33:39Z,42.805,6.029,13.3016,4.60070,2470.567,2023-5-06T15:36:47Z
2023-05-06T13:36:42Z,42.805,6.029,13.3014,4.60069,2470.577,2023-5-06T15:39:50Z
2023-05-06T13:39:45Z,42.805,6.029,13.3013,4.60070,2470.577,2023-5-06T15:42:53Z
2023-05-06T13:42:48Z,42.805,6.029,13.3019,4.60070,2470.577,2023-5-06T15:45:56Z
2023-05-06T13:45:51Z,42.805,6.029,13.3011,4.60069,2470.6,2023-5-06T15:49:00Z
2023-05-06T13:48:54Z,42.805,6.029,13.3014,4.60069,2470.6,2023-5-06T15:52:03Z
2023-05-06T13:51:57Z,42.805,6.029,13.3016,4.60070,2470.553,2023-5-06T15:55:06Z
2023-05-06T13:55:00Z,42.805,6.029,13.3015,4.60073,2470.614,2023-5-06T15:58:09Z
2023-05-06T13:58:03Z,42.805,6.029,13.3018,4.60070,2470.6,2023-5-06T16:01:12Z
2023-05-06T14:01:06Z,42.805,6.029,13.3016,4.60071,2470.6,2023-5-06T16:04:15Z
2023-05-06T14:04:09Z,42.805,6.029,13.3014,4.60070,2470.553,2023-5-06T16:07:18Z
2023-05-06T14:07:13Z,42.805,6.029,13.3016,4.60071,2470.553,2023-5-06T16:10:21Z
2023-05-06T14:10:16Z,42.805,6.029,13.3015,4.60070,2470.567,2023-5-06T16:13:24Z
2023-05-06T14:13:19Z,42.805,6.029,13.3014,4.60070,2470.577,2023-5-06T16:16:27Z
2023-05-06T14:16:22Z,42.805,6.029,13.3015,4.60069,2470.553,2023-5-06T16:19:30Z
2023-05-06T14:19:25Z,42.805,6.029,13.3015,4.60070,2470.553,2023-5-06T16:22:33Z
2023-05-06T14:22:28Z,42.805,6.029,13.3014,4.60070,2470.567,2023-5-06T16:25:37Z
2023-05-06T14:25:31Z,42.805,6.029,13.3015,4.60069,2470.591,2023-5-06T16:28:40Z
2023-05-06T14:28:34Z,42.805,6.029,13.3016,4.60070,2470.586,2023-5-06T16:31:43Z
2023-05-06T14:31:39Z,42.805,6.029,13.3015,4.60070,2470.553,2023-5-06T16:34:47Z
2023-05-06T14:34:42Z,42.805,6.029,13.3017,4.60069,2470.553,2023-5-06T16:37:50Z
2023-05-06T14:37:45Z,42.805,6.029,13.3016,4.60069,2470.567,2023-5-06T16:40:53Z
2023-05-06T14:40:48Z,42.805,6.029,13.3016,4.60069,2470.553,2023-5-06T16:43:57Z
2023-05-06T14:43:51Z,42.805,6.029,13.3016,4.60069,2470.577,2023-5-06T16:47:00Z
2023-05-06T14:46:54Z,42.805,6.029,13.3015,4.60068,2470.577,2023-5-06T16:50:03Z
2023-05-06T14:49:57Z,42.805,6.029,13.3015,4.60069,2470.591,2023-5-06T16:53:06Z
2023-05-06T14:53:00Z,42.805,6.029,13.3014,4.60069,2470.553,2023-5-06T16:56:09Z
2023-05-06T14:56:03Z,42.805,6.029,13.3014,4.60069,2470.614,2023-5-06T16:59:12Z
2023-05-06T14:59:06Z,42.805,6.029,13.3020,4.60069,2470.6,2023-5-06T17:02:15Z
2023-05-06T15:02:10Z,42.805,6.029,13.3013,4.60072,2470.577,2023-5-06T17:05:18Z
2023-05-06T15:05:13Z,42.805,6.029,13.3016,4.60069,2470.553,2023-5-06T17:08:21Z
2023-05-06T15:08:16Z,42.805,6.029,13.3013,4.60069,2470.577,2023-5-06T17:11:24Z
2023-05-06T15:11:19Z,42.805,6.029,13.3016,4.60069,2470.6,2023-5-06T17:14:27Z
2023-05-06T15:14:22Z,42.805,6.029,13.3019,4.60069,2470.567,2023-5-06T17:17:30Z